CPA4140 VHHH-RCTP

Flight info

Callsign CPA4140
Flight time N/A
Altitude 41000
Route DALOL V631 ENVAR M750 EXTRA/N0491F290 M750 TONGA TONGA1A
Aircraft A359/H-SDE2E3GHIJ3J4J5LM1ORWXY/LB1D1

Departure

Time 2026-04-30 22:03
Airport Hong Kong International Airport (VHHH)

Arrival

Time N/A
Airport Taiwan Taoyuan International Airport (RCTP)
Time Latitude Longitude Altitude Speed Heading
2026-04-30 21:23 22.31175 113.92772 43 ft 0 kts 295°
2026-04-30 21:49 22.31174 113.92773 43 ft 2 kts 295°
2026-04-30 21:49 22.31164 113.92796 43 ft 4 kts 295°
2026-04-30 21:50 22.31152 113.92822 43 ft 4 kts 296°
2026-04-30 21:50 22.31144 113.92842 43 ft 4 kts 272°
2026-04-30 21:50 22.31147 113.92863 43 ft 4 kts 233°
2026-04-30 21:50 22.31164 113.92882 43 ft 4 kts 213°
2026-04-30 21:51 22.31183 113.92894 43 ft 1 kts 206°
2026-04-30 21:51 22.31186 113.92895 43 ft 0 kts 206°
2026-04-30 21:53 22.31172 113.92888 43 ft 8 kts 206°
2026-04-30 21:54 22.31099 113.92850 43 ft 11 kts 206°
2026-04-30 21:54 22.31032 113.92813 43 ft 13 kts 206°
2026-04-30 21:54 22.30943 113.92767 43 ft 16 kts 206°
2026-04-30 21:54 22.30844 113.92700 43 ft 18 kts 232°
2026-04-30 21:55 22.30797 113.92572 43 ft 18 kts 251°
2026-04-30 21:55 22.30753 113.92433 43 ft 21 kts 251°
2026-04-30 21:55 22.30702 113.92275 43 ft 23 kts 251°
2026-04-30 21:55 22.30645 113.92102 43 ft 26 kts 250°
2026-04-30 21:56 22.30599 113.91959 43 ft 20 kts 251°
2026-04-30 21:56 22.30550 113.91809 41 ft 23 kts 250°
2026-04-30 21:56 22.30495 113.91639 43 ft 25 kts 251°
2026-04-30 21:56 22.30436 113.91452 43 ft 27 kts 251°
2026-04-30 21:57 22.30384 113.91292 43 ft 23 kts 251°
2026-04-30 21:57 22.30329 113.91123 43 ft 25 kts 251°
2026-04-30 21:57 22.30271 113.90946 43 ft 22 kts 250°
2026-04-30 21:57 22.30228 113.90812 43 ft 20 kts 251°
2026-04-30 21:58 22.30254 113.90692 43 ft 19 kts 336°
2026-04-30 21:58 22.30384 113.90642 43 ft 21 kts 341°
2026-04-30 21:58 22.30532 113.90586 43 ft 24 kts 340°
2026-04-30 21:58 22.30693 113.90524 43 ft 26 kts 340°
2026-04-30 21:59 22.30845 113.90467 43 ft 5 kts 341°
2026-04-30 21:59 22.30877 113.90456 43 ft 6 kts 341°
2026-04-30 21:59 22.30930 113.90436 43 ft 10 kts 341°
2026-04-30 22:00 22.30975 113.90289 43 ft 15 kts 252°
2026-04-30 22:00 22.30903 113.90042 43 ft 21 kts 251°
2026-04-30 22:00 22.30851 113.89888 43 ft 23 kts 250°
2026-04-30 22:01 22.30846 113.89711 43 ft 25 kts 283°
2026-04-30 22:01 22.30847 113.89519 42 ft 25 kts 262°
2026-04-30 22:01 22.30851 113.89431 42 ft 10 kts 296°
2026-04-30 22:01 22.30914 113.89389 42 ft 12 kts 348°
2026-04-30 22:02 22.30972 113.89427 41 ft 11 kts 63°
2026-04-30 22:02 22.30986 113.89464 43 ft 0 kts 69°
2026-04-30 22:02 22.30994 113.89487 43 ft 24 kts 69°
2026-04-30 22:03 22.31142 113.89948 44 ft 103 kts 71°
2026-04-30 22:03 22.31456 113.90917 46 ft 168 kts 71°
2026-04-30 22:03 22.31831 113.92185 703 ft 174 kts 72°
2026-04-30 22:03 22.32180 113.93421 1695 ft 172 kts 73°
2026-04-30 22:04 22.32510 113.94676 2427 ft 176 kts 74°
2026-04-30 22:04 22.32891 113.95992 2956 ft 196 kts 69°
2026-04-30 22:04 22.33665 113.99058 4324 ft 221 kts 78°
2026-04-30 22:05 22.33782 114.00715 5083 ft 229 kts 94°
2026-04-30 22:05 22.33397 114.02395 5921 ft 234 kts 114°
2026-04-30 22:05 22.32475 114.03839 6866 ft 236 kts 135°
2026-04-30 22:05 22.31169 114.04908 7771 ft 240 kts 148°
2026-04-30 22:06 22.29711 114.05846 8694 ft 244 kts 150°
2026-04-30 22:06 22.26733 114.07743 10459 ft 254 kts 152°
2026-04-30 22:06 22.25103 114.08549 11162 ft 261 kts 169°
2026-04-30 22:07 22.23312 114.08746 11807 ft 269 kts 184°
2026-04-30 22:07 22.21368 114.08718 12209 ft 291 kts 186°
2026-04-30 22:07 22.19270 114.08698 12596 ft 314 kts 181°
2026-04-30 22:07 22.17053 114.09224 12966 ft 343 kts 159°
2026-04-30 22:08 22.15054 114.10784 13320 ft 369 kts 135°
2026-04-30 22:08 22.13638 114.13165 13846 ft 384 kts 118°
2026-04-30 22:08 22.12480 114.15788 14519 ft 389 kts 117°
2026-04-30 22:08 22.11307 114.18435 15204 ft 393 kts 118°
2026-04-30 22:09 22.10090 114.21097 15874 ft 397 kts 118°
2026-04-30 22:09 22.08843 114.23769 16535 ft 401 kts 119°
2026-04-30 22:09 22.07317 114.26278 17174 ft 400 kts 135°
2026-04-30 22:09 22.05228 114.28239 17849 ft 399 kts 146°
2026-04-30 22:10 22.03000 114.29988 18489 ft 402 kts 147°
2026-04-30 22:10 22.00715 114.31761 19106 ft 406 kts 147°
2026-04-30 22:10 21.98413 114.33557 19686 ft 411 kts 147°
2026-04-30 22:10 21.96082 114.35384 20261 ft 416 kts 147°
2026-04-30 22:11 21.92164 114.38471 21223 ft 423 kts 147°
2026-04-30 22:11 21.89769 114.40352 21773 ft 428 kts 147°
2026-04-30 22:11 21.87430 114.42375 22295 ft 435 kts 139°
2026-04-30 22:12 21.85428 114.44852 22820 ft 443 kts 127°
2026-04-30 22:12 21.83955 114.47781 23367 ft 450 kts 113°
2026-04-30 22:12 21.82981 114.51001 23873 ft 455 kts 107°
2026-04-30 22:12 21.81878 114.55383 24523 ft 460 kts 106°
2026-04-30 22:13 21.81311 114.57641 24860 ft 463 kts 106°
2026-04-30 22:13 21.80457 114.61007 25367 ft 468 kts 107°
2026-04-30 22:13 21.79587 114.64402 25880 ft 473 kts 107°
2026-04-30 22:13 21.78706 114.67822 26376 ft 477 kts 107°
2026-04-30 22:14 21.77822 114.71241 26832 ft 483 kts 107°
2026-04-30 22:14 21.76916 114.74737 27329 ft 487 kts 107°
2026-04-30 22:14 21.76000 114.78264 27832 ft 491 kts 107°
2026-04-30 22:14 21.75086 114.81818 28302 ft 495 kts 107°
2026-04-30 22:15 21.74453 114.85481 28733 ft 502 kts 97°
2026-04-30 22:15 21.74267 114.89247 29197 ft 506 kts 92°
2026-04-30 22:15 21.74224 114.93058 29629 ft 511 kts 91°
2026-04-30 22:15 21.74244 114.96898 30057 ft 515 kts 90°
2026-04-30 22:16 21.74285 115.00770 30481 ft 519 kts 90°
2026-04-30 22:16 21.74321 115.04657 30946 ft 521 kts 90°
2026-04-30 22:17 21.74357 115.16374 32212 ft 527 kts 91°
2026-04-30 22:17 21.74352 115.20342 32586 ft 530 kts 91°
2026-04-30 22:17 21.74335 115.28323 33327 ft 534 kts 91°
2026-04-30 22:18 21.74325 115.32321 33654 ft 537 kts 91°
2026-04-30 22:18 21.74303 115.40378 34414 ft 538 kts 91°
2026-04-30 22:19 21.74280 115.48359 35265 ft 536 kts 91°
2026-04-30 22:19 21.74267 115.52375 35640 ft 536 kts 91°
2026-04-30 22:19 21.74237 115.60412 36373 ft 536 kts 91°
2026-04-30 22:20 21.74220 115.64416 36692 ft 536 kts 91°
2026-04-30 22:20 21.74189 115.72395 37412 ft 534 kts 91°
2026-04-30 22:20 21.74173 115.76373 37853 ft 530 kts 91°
2026-04-30 22:21 21.74157 115.80333 38210 ft 529 kts 91°
2026-04-30 22:21 21.74139 115.84298 38484 ft 529 kts 91°
2026-04-30 22:21 21.74119 115.88272 38781 ft 529 kts 91°
2026-04-30 22:21 21.74097 115.92233 39023 ft 530 kts 91°
2026-04-30 22:22 21.74074 115.96150 39285 ft 530 kts 91°
2026-04-30 22:22 21.74051 116.00117 39552 ft 529 kts 91°
2026-04-30 22:22 21.74028 116.04072 39800 ft 529 kts 91°
2026-04-30 22:22 21.74004 116.08043 40055 ft 529 kts 91°
2026-04-30 22:23 21.73978 116.12019 40304 ft 529 kts 91°
2026-04-30 22:23 21.73951 116.15930 40492 ft 530 kts 91°
2026-04-30 22:23 21.73924 116.19903 40702 ft 530 kts 91°
2026-04-30 22:23 21.73895 116.23872 40925 ft 530 kts 91°
2026-04-30 22:24 21.73865 116.27841 41046 ft 531 kts 91°
2026-04-30 22:24 21.73835 116.31810 41055 ft 530 kts 91°
2026-04-30 22:24 21.73771 116.39758 41055 ft 530 kts 91°
2026-04-30 22:25 21.73704 116.47687 41055 ft 530 kts 91°
2026-04-30 22:25 21.73633 116.55563 41054 ft 530 kts 91°
2026-04-30 22:26 21.73519 116.67452 41054 ft 530 kts 91°
2026-04-30 22:27 21.73525 116.75378 41063 ft 530 kts 86°
2026-04-30 22:27 21.76289 116.86836 41063 ft 529 kts 68°
2026-04-30 22:28 21.80372 116.97900 41064 ft 530 kts 67°
2026-04-30 22:29 21.85784 117.12676 41064 ft 531 kts 68°
2026-04-30 22:31 21.95119 117.38668 41064 ft 533 kts 68°
2026-04-30 22:32 22.02912 117.56658 41064 ft 532 kts 57°
2026-04-30 22:33 22.12593 117.73640 41064 ft 532 kts 56°
2026-04-30 22:35 22.22239 117.90683 41047 ft 533 kts 57°
2026-04-30 22:36 22.31940 118.07726 41047 ft 533 kts 56°
2026-04-30 22:37 22.39868 118.21237 41035 ft 533 kts 56°
2026-04-30 22:38 22.47638 118.34890 41038 ft 533 kts 57°
2026-04-30 22:39 22.53406 118.45133 41035 ft 533 kts 56°
2026-04-30 22:40 22.65062 118.65652 41014 ft 533 kts 56°
2026-04-30 22:41 22.74755 118.82713 41028 ft 533 kts 56°
2026-04-30 22:43 22.86375 119.03243 41028 ft 533 kts 56°
2026-04-30 22:44 22.94111 119.16958 41020 ft 533 kts 56°
2026-04-30 22:45 23.05673 119.37523 41045 ft 533 kts 56°
2026-04-30 22:47 23.17599 119.57873 41044 ft 526 kts 43°
2026-04-30 22:47 23.23305 119.62637 41046 ft 513 kts 25°
2026-04-30 22:48 23.29445 119.66486 40713 ft 513 kts 25°
2026-04-30 22:49 23.38736 119.72316 39826 ft 511 kts 25°
2026-04-30 22:49 23.47982 119.78148 37924 ft 512 kts 25°
2026-04-30 22:50 23.60053 119.86431 35018 ft 515 kts 28°
2026-04-30 22:51 23.66143 119.90641 33288 ft 520 kts 28°
2026-04-30 22:51 23.72279 119.94878 31458 ft 523 kts 28°
2026-04-30 22:52 23.75316 119.96977 30728 ft 520 kts 28°
2026-04-30 22:52 23.81395 120.01183 29401 ft 511 kts 29°
2026-04-30 22:53 23.87357 120.05307 28079 ft 502 kts 29°
2026-04-30 22:53 23.93208 120.09360 26774 ft 493 kts 30°
2026-04-30 22:53 23.96098 120.11362 26131 ft 489 kts 30°
2026-04-30 22:54 24.01780 120.15304 24867 ft 479 kts 30°
2026-04-30 22:55 24.10049 120.21051 22987 ft 463 kts 30°
2026-04-30 22:55 24.15446 120.24808 21696 ft 454 kts 30°
2026-04-30 22:56 24.20738 120.28491 20437 ft 446 kts 30°
2026-04-30 22:56 24.28482 120.33890 18567 ft 437 kts 30°
2026-04-30 22:57 24.33581 120.37447 17288 ft 430 kts 30°
2026-04-30 22:57 24.38557 120.40924 16027 ft 422 kts 30°
2026-04-30 22:58 24.43459 120.44353 14761 ft 413 kts 30°
2026-04-30 22:59 24.50614 120.49362 12914 ft 400 kts 30°
2026-04-30 22:59 24.57529 120.54213 11212 ft 384 kts 31°